This is the latest recevied weather packets stored in our database for station/object W5ITZ. If no packets are shown the sender has not sent any weather packets the latest 1 day(s).
| Time | Temp. | Humidity | Pressure | Rain* | Wind** | Luminosity | Snow |
|---|---|---|---|---|---|---|---|
| 1778078284 | 25° C | 94% | 1009.3 hPa | 0 mm | - | 65 W/m² | - |
| 1778077679 | 25° C | 94% | 1008.9 hPa | 0 mm | - | 26 W/m² | - |
| 1778076773 | 25° C | 94% | 1008.9 hPa | 0 mm | - | 25 W/m² | - |
| 1778075864 | 25° C | 95% | 1008.9 hPa | 0 mm | - | 90 W/m² | - |
| 1778075560 | 25° C | 95% | 1009.2 hPa | 0 mm | - | 100 W/m² | - |
| 1778075257 | 25° C | 95% | 1009.1 hPa | 0 mm | - | 82 W/m² | - |
| 1778074347 | 25° C | 95% | 1009.3 hPa | 0 mm | - | 57 W/m² | - |
| 1778074044 | 25° C | 95% | 1009.1 hPa | 0 mm | - | 48 W/m² | - |
| 1778073439 | 24.44° C | 95% | 1009 hPa | 0 mm | - | 54 W/m² | - |
| 1778072832 | 24.44° C | 95% | 1009.1 hPa | 0 mm | - | 27 W/m² | - |
| 1778072529 | 24.44° C | 95% | 1009.1 hPa | 0 mm | - | 19 W/m² | - |
| 1778072227 | 24.44° C | 95% | 1009 hPa | 0 mm | - | 10 W/m² | - |
| 1778069202 | 24.44° C | 95% | 1008.5 hPa | 0 mm | - | 5 W/m² | - |
| 1778068295 | 24.44° C | 95% | 1008.9 hPa | 0 mm | - | 3 W/m² | - |
| 1778067992 | 24.44° C | 95% | 1008.7 hPa | 0 mm | - | 2 W/m² | - |
| 1778067690 | 24.44° C | 95% | 1008.8 hPa | 0 mm | - | 1 W/m² | - |
| 1778067085 | 24.44° C | 95% | 1008.7 hPa | 0 mm | - | 0 W/m² | - |
| 1778066781 | 24.44° C | 95% | 1008.7 hPa | 0 mm | - | 0 W/m² | - |
| 1778066479 | 24.44° C | 95% | 1008.4 hPa | 0 mm | - | 0 W/m² | - |
| 1778066176 | 24.44° C | 95% | 1008.7 hPa | 0 mm | - | 0 W/m² | - |
| 1778065874 | 24.44° C | 95% | 1008.6 hPa | 0 mm | - | 0 W/m² | - |
| 1778065571 | 24.44° C | 95% | 1008.4 hPa | 0 mm | - | 0 W/m² | - |
| 1778064360 | 24.44° C | 95% | 1008.4 hPa | 0 mm | - | 0 W/m² | - |
| 1778063754 | 24.44° C | 95% | 1008.3 hPa | 0 mm | - | 0 W/m² | - |
| 1778063451 | 24.44° C | 95% | 1008.4 hPa | 0 mm | - | 0 W/m² | - |
* Rain latest hour (hover to see other rain measurements)
** Current wind speed in m/s (hover to see current wind gust speed)